This demonstration page uses our WeatherBlox Daily Observations layout. Learn more.

Left ArrowRight Arrow

39.01783, -85.05884

Hourly Observations for February 5, 2017

Temp ( °F °C ) Dew Point ( °F °C ) Humidity (%) Winds ( mph kmh ) Pressure ( in mb ) Visibility ( mi km ) Precip ( " mm )
12:52 am 00:52 Cloudy 36 2.2 10 -12.2 34 34 SSW 8 13 30.04 1017 10 16 0.00 0.00
1:52 am 01:52 Cloudy 35 1.7 11 -11.7 37 37 SSW 8 13 30.02 1017 10 16 0.00 0.00
2:52 am 02:52 Cloudy 37 2.8 13 -10.6 37 37 SSW 9 15 30.01 1016 10 16 0.00 0.00
3:52 am 03:52 Cloudy 39 3.9 17 -8.3 41 41 SW 9 15 30.00 1016 10 16 0.00 0.00
4:52 am 04:52 Cloudy 40 4.4 19 -7.2 43 43 WSW 10 17 30.00 1016 10 16 0.00 0.00
5:52 am 05:52 Cloudy 40 4.4 22 -5.6 49 49 WSW 13 20 30.01 1016 10 16 0.00 0.00
6:52 am 06:52 Partly Cloudy 38 3.3 22 -5.6 52 52 WSW 8 13 30.02 1017 10 16 0.00 0.00
7:52 am 07:52 Sunny 37 2.8 23 -5 57 57 SW 9 15 30.03 1017 10 16 0.00 0.00
8:52 am 08:52 Mostly Sunny 39 3.9 25 -3.9 57 57 SW 12 19 30.04 1017 10 16 0.00 0.00
9:52 am 09:52 Mostly Sunny 42 5.6 27 -2.8 55 55 WSW 14 22 30.04 1017 10 16 0.00 0.00
10:52 am 10:52 Partly Cloudy 43 6.1 28 -2.2 56 56 SW 20 31 30.04 1017 10 16 0.00 0.00
11:52 am 11:52 Partly Cloudy 45 7.2 29 -1.7 54 54 WSW 14 22 30.04 1017 10 16 0.00 0.00
12:52 pm 12:52 Sunny 48 8.9 30 -1.1 50 50 WSW 13 20 30.02 1017 10 16 0.00 0.00
1:52 pm 13:52 Sunny 50 10 31 -0.6 48 48 SW 15 24 30.01 1016 10 16 0.00 0.00
2:52 pm 14:52 Mostly Sunny 51 10.6 30 -1.1 44 44 W 15 24 30.00 1016 10 16 0.00 0.00
3:52 pm 15:52 Mostly Sunny 52 11.1 30 -1.1 43 43 W 14 22 30.00 1016 10 16 0.00 0.00
4:52 pm 16:52 Mostly Sunny 51 10.6 30 -1.1 44 44 W 12 19 30.03 1017 10 16 0.00 0.00
5:52 pm 17:52 Mostly Sunny 47 8.3 30 -1.1 52 52 W 12 19 30.06 1018 10 16 0.00 0.00
6:52 pm 18:52 Mostly Clear 42 5.6 29 -1.7 60 60 W 7 11 30.09 1019 10 16 0.00 0.00
7:52 pm 19:52 Mostly Clear 42 5.6 29 -1.7 60 60 W 5 7 30.11 1020 10 16 0.00 0.00
8:52 pm 20:52 Mostly Clear 39 3.9 28 -2.2 65 65 WNW 5 7 30.11 1020 10 16 0.00 0.00
9:52 pm 21:52 Mostly Clear 38 3.3 28 -2.2 68 68 WNW 6 9 30.14 1021 10 16 0.00 0.00
10:52 pm 22:52 Mostly Cloudy 37 2.8 28 -2.2 70 70 NW 6 9 30.14 1021 10 16 0.00 0.00
11:52 pm 23:52 Mostly Cloudy 33 0.6 27 -2.8 78 78 Calm 30.14 1021 10 16 0.00 0.00

Powered by AerisWeather